,,,PA_Meas_PMT16A,,PR_Meas_QMR101_102,,RH_Meas_QMH101,,SR_Meas_QMS101,,TA_Meas_QMH101,,GenWind,,GenWind,
date,time,status,PA,status,PR,status,RH,status,SR,status,TA,status,DirAvg,status,SpdAvg,
2012-05-27, 00:00:05,VALID,1001.18,VALID,0,VALID,92.9898,VALID,0,VALID,24.5989,VALID,291,VALID,0,
2012-05-27, 00:01:05,VALID,1001.16,VALID,0,VALID,93.0127,VALID,0,VALID,24.5971,VALID,291,VALID,0.31875,
2012-05-27, 00:02:05,VALID,1001.14,VALID,0,VALID,92.883,VALID,0,VALID,24.6184,VALID,291,VALID,0.25625,
2012-05-27, 00:03:05,VALID,1001.14,VALID,0,VALID,92.738,VALID,0,VALID,24.6184,VALID,291,VALID,0,
2012-05-27, 00:04:05,VALID,1001.15,VALID,0,VALID,92.616,VALID,0,VALID,24.6184,VALID,291,VALID,0,
2012-05-27, 00:05:05,VALID,1001.13,VALID,0,VALID,92.6083,VALID,0,VALID,24.638,VALID,291,VALID,0,
2012-05-27, 00:06:05,VALID,1001.13,VALID,0,VALID,92.6923,VALID,0,VALID,24.638,VALID,291,VALID,0,
2012-05-27, 00:07:05,VALID,1001.14,VALID,0,VALID,92.5091,VALID,0,VALID,24.6575,VALID,291,VALID,0,
2012-05-27, 00:08:05,VALID,1001.13,VALID,0,VALID,92.3718,VALID,0,VALID,24.677,VALID,291,VALID,0,
2012-05-27, 00:09:05,VALID,1001.12,VALID,0,VALID,92.3413,VALID,0,VALID,24.7374,VALID,291,VALID,0,
2012-05-27, 00:10:05,VALID,1001.14,VALID,0,VALID,92.3871,VALID,0,VALID,24.7551,VALID,291,VALID,0.451172,
2012-05-27, 00:11:05,VALID,1001.11,VALID,0,VALID,92.3794,VALID,0,VALID,24.7551,VALID,45,VALID,0.711719,
2012-05-27, 00:12:05,VALID,1001.07,VALID,0,VALID,92.0971,VALID,0,VALID,24.716,VALID,52,VALID,0.212891,
2012-05-27, 00:13:05,VALID,1001.08,VALID,0,VALID,92.1658,VALID,0,VALID,24.677,VALID,52,VALID,0.236328,
2012-05-27, 00:14:05,VALID,1001,VALID,0,VALID,92.3794,VALID,0,VALID,24.6984,VALID,52,VALID,0.650391,
2012-05-27, 00:15:05,VALID,1000.97,VALID,0,VALID,92.4863,VALID,0,VALID,24.6575,VALID,52,VALID,0.592969,
2012-05-27, 00:16:05,VALID,1000.95,VALID,0,VALID,92.5931,VALID,0,VALID,24.6575,VALID,52,VALID,0.528516,
2012-05-27, 00:17:05,VALID,1000.91,VALID,0,VALID,92.7304,VALID,0,VALID,24.6575,VALID,52,VALID,0.3,
2012-05-27, 00:18:05,VALID,1000.91,VALID,0,VALID,92.8906,VALID,0,VALID,24.6575,VALID,52,VALID,0.570313,
2012-05-27, 00:19:05,VALID,1000.88,VALID,0,VALID,92.8296,VALID,0,VALID,24.6184,VALID,52,VALID,0.726953,
2012-05-27, 00:20:05,VALID,1000.84,VALID,0,VALID,92.822,VALID,0,VALID,24.5971,VALID,58,VALID,0.995703,
2012-05-27, 00:21:05,VALID,1000.81,VALID,0,VALID,92.7762,VALID,0,VALID,24.6184,VALID,68,VALID,1.07891,
2012-05-27, 00:22:05,VALID,1000.75,VALID,0,VALID,92.883,VALID,0,VALID,24.6184,VALID,94,VALID,1.33828,
2012-05-27, 00:23:05,VALID,1000.76,VALID,0,VALID,92.9898,VALID,0,VALID,24.6184,VALID,94,VALID,1.48242,
2012-05-27, 00:24:05,VALID,1000.71,VALID,0,VALID,93.1805,VALID,0,VALID,24.6184,VALID,93,VALID,1.12969,
2012-05-27, 00:25:05,VALID,1000.67,VALID,0,VALID,93.3866,VALID,0,VALID,24.5989,VALID,92,VALID,1.68125,
2012-05-27, 00:26:05,VALID,1000.66,VALID,0,VALID,93.5697,VALID,0,VALID,24.5794,VALID,92,VALID,1.48125,
2012-05-27, 00:27:05,VALID,1000.64,VALID,0,VALID,93.7985,VALID,0,VALID,24.5794,VALID,89,VALID,1.2668,
2012-05-27, 00:28:05,VALID,1000.6,VALID,0,VALID,93.9893,VALID,0,VALID,24.5794,VALID,88,VALID,1.01719,
2012-05-27, 00:29:05,VALID,1000.58,VALID,0,VALID,94.1495,VALID,0,VALID,24.5599,VALID,87,VALID,0.966016,
2012-05-27, 00:30:05,VALID,1000.56,VALID,0,VALID,94.2182,VALID,0,VALID,24.5404,VALID,92,VALID,0.894141,
2012-05-27, 00:31:05,VALID,1000.55,VALID,0,VALID,94.3097,VALID,0,VALID,24.5404,VALID,93,VALID,0.691406,
2012-05-27, 00:32:05,VALID,1000.54,VALID,0,VALID,94.3555,VALID,0,VALID,24.5209,VALID,93,VALID,0.816016,
2012-05-27, 00:33:05,VALID,1000.55,VALID,0,VALID,94.3708,VALID,0,VALID,24.5013,VALID,93,VALID,0.581641,
2012-05-27, 00:34:05,VALID,1000.53,VALID,0,VALID,94.4013,VALID,0,VALID,24.48,VALID,91,VALID,1.07461,
2012-05-27, 00:35:05,VALID,1000.54,VALID,0,VALID,94.4394,VALID,0,VALID,24.5013,VALID,89,VALID,0.613281,
2012-05-27, 00:36:05,VALID,1000.54,VALID,0,VALID,94.4852,VALID,0,VALID,24.5013,VALID,35,VALID,0.883203,
2012-05-27, 00:37:05,VALID,1000.57,VALID,0,VALID,94.5539,VALID,0,VALID,24.4818,VALID,45,VALID,0.988281,
2012-05-27, 00:38:05,VALID,1000.57,VALID,0,VALID,94.592,VALID,0,VALID,24.5013,VALID,45,VALID,1.59375,
2012-05-27, 00:39:05,VALID,1000.57,VALID,0,VALID,94.5691,VALID,0,VALID,24.4818,VALID,52,VALID,1.54023,
2012-05-27, 00:40:05,VALID,1000.55,VALID,0,VALID,94.4928,VALID,0,VALID,24.4818,VALID,43,VALID,1.37656,
2012-05-27, 00:41:05,VALID,1000.56,VALID,0,VALID,94.4623,VALID,0,VALID,24.4818,VALID,57,VALID,1.50781,
2012-05-27, 00:42:05,VALID,1000.58,VALID,0,VALID,94.4852,VALID,0,VALID,24.4623,VALID,56,VALID,1.33203,
2012-05-27, 00:43:05,VALID,1000.58,VALID,0,VALID,94.5386,VALID,0,VALID,24.4428,VALID,63,VALID,1.61133,
2012-05-27, 00:44:05,VALID,1000.6,VALID,0,VALID,94.5997,VALID,0,VALID,24.4214,VALID,69,VALID,1.21797,
2012-05-27, 00:45:05,VALID,1000.59,VALID,0,VALID,94.6531,VALID,0,VALID,24.4428,VALID,77,VALID,1.13789,
2012-05-27, 00:46:05,VALID,1000.58,VALID,0,VALID,94.6912,VALID,0,VALID,24.4428,VALID,76,VALID,1.26797,
2012-05-27, 00:47:05,VALID,1000.57,VALID,0,VALID,94.7446,VALID,0,VALID,24.4233,VALID,75,VALID,1.29023,
2012-05-27, 00:48:05,VALID,1000.59,VALID,0,VALID,94.7294,VALID,0,VALID,24.4037,VALID,73,VALID,1.10039,
2012-05-27, 00:49:05,VALID,1000.55,VALID,0,VALID,94.7141,VALID,0,VALID,24.3842,VALID,80,VALID,1.56406,
2012-05-27, 00:50:05,VALID,1000.56,VALID,0,VALID,94.6988,VALID,0,VALID,24.3842,VALID,78,VALID,1.21211,
2012-05-27, 00:51:05,VALID,1000.55,VALID,0,VALID,94.6302,VALID,0,VALID,24.3647,VALID,78,VALID,0.915625,
2012-05-27, 00:52:05,VALID,1000.52,VALID,0,VALID,94.5844,VALID,0,VALID,24.3647,VALID,90,VALID,1.05313,
2012-05-27, 00:53:05,VALID,1000.54,VALID,0,VALID,94.5386,VALID,0,VALID,24.3647,VALID,90,VALID,0.635938,
2012-05-27, 00:54:05,VALID,1000.53,VALID,0,VALID,94.5615,VALID,0,VALID,24.3629,VALID,90,VALID,0.38125,
2012-05-27, 00:55:05,VALID,1000.53,VALID,0,VALID,94.5615,VALID,0,VALID,24.3647,VALID,90,VALID,0.368359,
2012-05-27, 00:56:05,VALID,1000.52,VALID,0,VALID,94.5234,VALID,0,VALID,24.3452,VALID,90,VALID,0.120312,
2012-05-27, 00:57:05,VALID,1000.53,VALID,0,VALID,94.4928,VALID,0,VALID,24.3452,VALID,90,VALID,0.0339844,
2012-05-27, 00:58:05,VALID,1000.52,VALID,0,VALID,94.5157,VALID,0,VALID,24.3647,VALID,90,VALID,0.189063,
2012-05-27, 00:59:05,VALID,1000.51,VALID,0,VALID,94.5234,VALID,0,VALID,24.3452,VALID,68,VALID,0.635547,
2012-05-27, 01:00:05,VALID,1000.52,VALID,0,VALID,94.5005,VALID,0,VALID,24.3238,VALID,36,VALID,0.778516,
2012-05-27, 01:01:05,VALID,1000.51,VALID,0,VALID,94.5386,VALID,0,VALID,24.3452,VALID,36,VALID,0.622266,
2012-05-27, 01:02:05,VALID,1000.51,VALID,0,VALID,94.5462,VALID,0,VALID,24.3257,VALID,36,VALID,0.537891,
2012-05-27, 01:03:05,VALID,1000.51,VALID,0,VALID,94.5462,VALID,0,VALID,24.3062,VALID,36,VALID,0.274219,
2012-05-27, 01:04:05,VALID,1000.52,VALID,0,VALID,94.5768,VALID,0,VALID,24.3062,VALID,36,VALID,0.315234,
2012-05-27, 01:05:05,VALID,1000.49,VALID,0,VALID,94.6073,VALID,0,VALID,24.2653,VALID,36,VALID,0.160547,
2012-05-27, 01:06:05,VALID,1000.51,VALID,0,VALID,94.6378,VALID,0,VALID,24.2866,VALID,36,VALID,0,
2012-05-27, 01:07:05,VALID,1000.52,VALID,0,VALID,94.6531,VALID,0,VALID,24.2458,VALID,36,VALID,0,
2012-05-27, 01:08:05,VALID,1000.5,VALID,0,VALID,94.6836,VALID,0,VALID,24.2476,VALID,36,VALID,0.242969,
2012-05-27, 01:09:05,VALID,1000.49,VALID,0,VALID,94.7141,VALID,0,VALID,24.2476,VALID,36,VALID,0.393359,
2012-05-27, 01:10:05,VALID,1000.48,VALID,0,VALID,94.737,VALID,0,VALID,24.2476,VALID,36,VALID,0.365234,
2012-05-27, 01:11:05,VALID,1000.44,VALID,0,VALID,94.7523,VALID,0,VALID,24.2476,VALID,36,VALID,0.296484,
2012-05-27, 01:12:05,VALID,1000.44,VALID,0,VALID,94.7828,VALID,0,VALID,24.2476,VALID,36,VALID,0.310156,
2012-05-27, 01:13:05,VALID,1000.44,VALID,0,VALID,94.7904,VALID,0,VALID,24.2476,VALID,52,VALID,0.608984,
2012-05-27, 01:14:05,VALID,1000.4,VALID,0,VALID,94.7904,VALID,0,VALID,24.2866,VALID,70,VALID,0.710547,
2012-05-27, 01:15:05,VALID,1000.42,VALID,0,VALID,94.7904,VALID,0,VALID,24.2866,VALID,97,VALID,0.799609,
2012-05-27, 01:16:05,VALID,1000.39,VALID,0,VALID,94.7675,VALID,0,VALID,24.3257,VALID,114,VALID,0.875781,
2012-05-27, 01:17:05,VALID,1000.39,VALID,0,VALID,94.7217,VALID,0,VALID,24.3257,VALID,115,VALID,0.842188,
2012-05-27, 01:18:05,VALID,1000.36,VALID,0,VALID,94.6607,VALID,0,VALID,24.3452,VALID,115,VALID,0.729297,
2012-05-27, 01:19:05,VALID,1000.37,VALID,0,VALID,94.6302,VALID,0,VALID,24.3452,VALID,115,VALID,0.682031,
2012-05-27, 01:20:05,VALID,1000.35,VALID,0,VALID,94.592,VALID,0,VALID,24.3257,VALID,115,VALID,0.502344,
2012-05-27, 01:21:05,VALID,1000.32,VALID,0,VALID,94.5386,VALID,0,VALID,24.3238,VALID,115,VALID,0.560547,
2012-05-27, 01:22:05,VALID,1000.31,VALID,0,VALID,94.5234,VALID,0,VALID,24.3452,VALID,115,VALID,0.532812,
2012-05-27, 01:23:05,VALID,1000.3,VALID,0,VALID,94.5539,VALID,0,VALID,24.3647,VALID,115,VALID,0.642187,
2012-05-27, 01:24:05,VALID,1000.31,VALID,0,VALID,94.5539,VALID,0,VALID,24.3452,VALID,115,VALID,0.58125,
2012-05-27, 01:25:05,VALID,1000.3,VALID,0,VALID,94.5844,VALID,0,VALID,24.3647,VALID,115,VALID,0.685938,
2012-05-27, 01:26:05,VALID,1000.3,VALID,0,VALID,94.6149,VALID,0,VALID,24.3647,VALID,115,VALID,0.591016,
2012-05-27, 01:27:05,VALID,1000.24,VALID,0,VALID,94.676,VALID,0,VALID,24.3452,VALID,112,VALID,0.928906,
2012-05-27, 01:28:05,VALID,1000.31,VALID,0,VALID,94.7828,VALID,0,VALID,24.3647,VALID,112,VALID,0.937891,
2012-05-27, 01:29:05,VALID,1000.28,VALID,0,VALID,94.8514,VALID,0,VALID,24.3647,VALID,112,VALID,0.794531,
2012-05-27, 01:30:05,VALID,1000.28,VALID,0,VALID,94.8896,VALID,0,VALID,24.3647,VALID,107,VALID,0.893359,
2012-05-27, 01:31:05,VALID,1000.34,VALID,0,VALID,94.9506,VALID,0,VALID,24.3452,VALID,107,VALID,0.872266,
2012-05-27, 01:32:05,VALID,1000.34,VALID,0,VALID,94.9811,VALID,0,VALID,24.3647,VALID,107,VALID,0.885547,
2012-05-27, 01:33:05,VALID,1000.34,VALID,0,VALID,94.9888,VALID,0,VALID,24.3433,VALID,107,VALID,0.679297,
2012-05-27, 01:34:05,VALID,1000.35,VALID,0,VALID,94.9964,VALID,0,VALID,24.3452,VALID,107,VALID,0.696484,
2012-05-27, 01:35:05,VALID,1000.33,VALID,0,VALID,94.9888,VALID,0,VALID,24.3452,VALID,107,VALID,0.660937,
2012-05-27, 01:36:05,VALID,1000.36,VALID,0,VALID,94.9964,VALID,0,VALID,24.3452,VALID,107,VALID,0.458594,
2012-05-27, 01:37:05,VALID,1000.37,VALID,0,VALID,94.9964,VALID,0,VALID,24.3257,VALID,107,VALID,0.473828,
2012-05-27, 01:38:05,VALID,1000.36,VALID,0,VALID,94.9811,VALID,0,VALID,24.3043,VALID,107,VALID,0.514063,
2012-05-27, 01:39:05,VALID,1000.35,VALID,0,VALID,94.9888,VALID,0,VALID,24.3257,VALID,107,VALID,0.272656,
2012-05-27, 01:40:05,VALID,1000.35,VALID,0,VALID,94.9583,VALID,0,VALID,24.3043,VALID,107,VALID,0.291016,
2012-05-27, 01:41:05,VALID,1000.34,VALID,0,VALID,94.9735,VALID,0,VALID,24.3043,VALID,107,VALID,0.255859,
2012-05-27, 01:42:05,VALID,1000.33,VALID,0,VALID,95.0193,VALID,0,VALID,24.3043,VALID,107,VALID,0.399609,
2012-05-27, 01:43:05,VALID,1000.31,VALID,0,VALID,95.0117,VALID,0,VALID,24.3043,VALID,107,VALID,0.288672,
2012-05-27, 01:44:05,VALID,1000.32,VALID,0,VALID,95.0345,VALID,0,VALID,24.3257,VALID,108,VALID,0.598047,
2012-05-27, 01:45:05,VALID,1000.29,VALID,0,VALID,95.0193,VALID,0,VALID,24.3043,VALID,127,VALID,0.878906,
2012-05-27, 01:46:05,VALID,1000.28,VALID,0,VALID,94.9811,VALID,0,VALID,24.3043,VALID,127,VALID,0.608984,
2012-05-27, 01:47:05,VALID,1000.26,VALID,0,VALID,94.9277,VALID,0,VALID,24.3452,VALID,127,VALID,0.721875,
2012-05-27, 01:48:05,VALID,1000.27,VALID,0,VALID,94.8514,VALID,0,VALID,24.3238,VALID,123,VALID,0.786719,
2012-05-27, 01:49:05,VALID,1000.24,VALID,0,VALID,94.7828,VALID,0,VALID,24.3452,VALID,123,VALID,0.694531,
2012-05-27, 01:50:05,VALID,1000.24,VALID,0,VALID,94.7294,VALID,0,VALID,24.3452,VALID,123,VALID,0.858203,
2012-05-27, 01:51:05,VALID,1000.22,VALID,0,VALID,94.6836,VALID,0,VALID,24.3452,VALID,123,VALID,0.779688,
2012-05-27, 01:52:05,VALID,1000.19,VALID,0,VALID,94.6454,VALID,0,VALID,24.3433,VALID,123,VALID,0.598828,
2012-05-27, 01:53:05,VALID,1000.21,VALID,0,VALID,94.6607,VALID,0.104696,VALID,24.3647,VALID,98,VALID,0.75625,
2012-05-27, 01:54:05,VALID,1000.2,VALID,0,VALID,94.6683,VALID,0,VALID,24.3842,VALID,98,VALID,0.710547,
2012-05-27, 01:55:05,VALID,1000.19,VALID,0,VALID,94.6683,VALID,0,VALID,24.3629,VALID,98,VALID,0.655859,
2012-05-27, 01:56:05,VALID,1000.2,VALID,0,VALID,94.6683,VALID,0,VALID,24.3842,VALID,97,VALID,0.562891,
2012-05-27, 01:57:05,VALID,1000.19,VALID,0,VALID,94.6988,VALID,0,VALID,24.3629,VALID,85,VALID,0.407031,
2012-05-27, 01:58:05,VALID,1000.16,VALID,0,VALID,94.7141,VALID,0,VALID,24.3647,VALID,85,VALID,0.410937,
2012-05-27, 01:59:05,VALID,1000.12,VALID,0,VALID,94.7141,VALID,0,VALID,24.3257,VALID,85,VALID,0.271875,
2012-05-27, 02:00:05,VALID,1000.11,VALID,0,VALID,94.7294,VALID,0,VALID,24.2848,VALID,85,VALID,0.555469,
2012-05-27, 02:01:05,VALID,1000.13,VALID,0,VALID,94.7217,VALID,0,VALID,24.2653,VALID,85,VALID,0.255078,
2012-05-27, 02:02:05,VALID,1000.1,VALID,0,VALID,94.7294,VALID,0,VALID,24.2458,VALID,85,VALID,0.244141,
2012-05-27, 02:03:05,VALID,1000.12,VALID,0,VALID,94.7675,VALID,0,VALID,24.2263,VALID,85,VALID,0.325391,
2012-05-27, 02:04:05,VALID,1000.13,VALID,0,VALID,94.798,VALID,0,VALID,24.2263,VALID,85,VALID,0.739844,
2012-05-27, 02:05:05,VALID,1000.09,VALID,0,VALID,94.7904,VALID,0,VALID,24.2476,VALID,94,VALID,1.01563,
2012-05-27, 02:06:05,VALID,1000.09,VALID,0,VALID,94.7217,VALID,0,VALID,24.2671,VALID,102,VALID,0.972266,
2012-05-27, 02:07:05,VALID,1000.08,VALID,0,VALID,94.6378,VALID,0,VALID,24.2866,VALID,112,VALID,1.04844,
2012-05-27, 02:08:05,VALID,1000.09,VALID,0,VALID,94.5997,VALID,0,VALID,24.2866,VALID,106,VALID,1.01641,
2012-05-27, 02:09:05,VALID,1000.06,VALID,0,VALID,94.5615,VALID,0,VALID,24.2848,VALID,112,VALID,0.905859,
2012-05-27, 02:10:05,VALID,1000.05,VALID,0,VALID,94.5081,VALID,0,VALID,24.3062,VALID,119,VALID,0.94375,
2012-05-27, 02:11:05,VALID,1000.04,VALID,0,VALID,94.4776,VALID,0,VALID,24.3257,VALID,118,VALID,1.04648,
2012-05-27, 02:12:05,VALID,1000.04,VALID,0,VALID,94.4242,VALID,0,VALID,24.3043,VALID,127,VALID,1.1082,
2012-05-27, 02:13:05,VALID,1000.03,VALID,0,VALID,94.3479,VALID,0,VALID,24.3257,VALID,117,VALID,1.04258,
2012-05-27, 02:14:05,VALID,1000.03,VALID,0,VALID,94.3326,VALID,0,VALID,24.3452,VALID,120,VALID,0.689453,
2012-05-27, 02:15:05,VALID,1000.03,VALID,0,VALID,94.3097,VALID,0,VALID,24.3238,VALID,119,VALID,0.708594,
2012-05-27, 02:16:05,VALID,1000.04,VALID,0,VALID,94.2792,VALID,0,VALID,24.3647,VALID,114,VALID,0.428906,
2012-05-27, 02:17:05,VALID,1000.02,VALID,0,VALID,94.264,VALID,0,VALID,24.3452,VALID,148,VALID,0.410156,
2012-05-27, 02:18:05,VALID,999.981,VALID,0,VALID,94.2563,VALID,0,VALID,24.3433,VALID,145,VALID,0.526563,
2012-05-27, 02:19:05,VALID,999.962,VALID,0,VALID,94.2182,VALID,0,VALID,24.3842,VALID,132,VALID,0.880078,
2012-05-27, 02:20:05,VALID,999.946,VALID,0,VALID,94.119,VALID,0,VALID,24.3629,VALID,124,VALID,1.30977,
2012-05-27, 02:21:05,VALID,999.904,VALID,0,VALID,93.9664,VALID,0,VALID,24.4214,VALID,124,VALID,1.43789,
2012-05-27, 02:22:05,VALID,999.876,VALID,0,VALID,93.7451,VALID,0,VALID,24.4214,VALID,128,VALID,1.38906,
2012-05-27, 02:23:05,VALID,999.871,VALID,0,VALID,93.5468,VALID,0,VALID,24.4623,VALID,135,VALID,1.1668,
2012-05-27, 02:24:05,VALID,999.852,VALID,0,VALID,93.356,VALID,0,VALID,24.4818,VALID,131,VALID,0.893359,
2012-05-27, 02:25:05,VALID,999.868,VALID,0,VALID,93.2721,VALID,0,VALID,24.48,VALID,142,VALID,0.825,
2012-05-27, 02:26:05,VALID,999.868,VALID,0,VALID,93.2034,VALID,0,VALID,24.48,VALID,151,VALID,1.05938,
2012-05-27, 02:27:05,VALID,999.877,VALID,0,VALID,93.1119,VALID,0,VALID,24.5013,VALID,154,VALID,0.607813,
2012-05-27, 02:28:05,VALID,999.884,VALID,0,VALID,92.9974,VALID,0,VALID,24.4995,VALID,154,VALID,0.858984,
2012-05-27, 02:29:05,VALID,999.836,VALID,0,VALID,92.8448,VALID,0,VALID,24.5209,VALID,150,VALID,0.725781,
2012-05-27, 02:30:05,VALID,999.819,VALID,0,VALID,92.6923,VALID,0,VALID,24.5209,VALID,146,VALID,0.752734,
2012-05-27, 02:31:05,VALID,999.765,VALID,0,VALID,92.6007,VALID,0,VALID,24.5013,VALID,146,VALID,0.892187,
2012-05-27, 02:32:05,VALID,999.731,VALID,0,VALID,92.5778,VALID,0,VALID,24.5013,VALID,146,VALID,0.807813,
2012-05-27, 02:33:05,VALID,999.692,VALID,0,VALID,92.5778,VALID,0,VALID,24.519,VALID,146,VALID,0.939062,
2012-05-27, 02:34:05,VALID,999.688,VALID,0,VALID,92.6388,VALID,0,VALID,24.5209,VALID,152,VALID,1.00117,
2012-05-27, 02:35:05,VALID,999.649,VALID,0,VALID,92.7151,VALID,0,VALID,24.5385,VALID,166,VALID,1.08281,
2012-05-27, 02:36:05,VALID,999.655,VALID,0,VALID,92.8372,VALID,0,VALID,24.5385,VALID,167,VALID,1.16914,
2012-05-27, 02:37:05,VALID,999.642,VALID,0,VALID,92.8983,VALID,0,VALID,24.5971,VALID,172,VALID,1.48828,
2012-05-27, 02:38:05,VALID,999.623,VALID,0,VALID,92.8983,VALID,0,VALID,24.6575,VALID,170,VALID,1.29062,
2012-05-27, 02:39:05,VALID,999.619,VALID,0,VALID,92.883,VALID,0,VALID,24.6556,VALID,170,VALID,1.43633,
2012-05-27, 02:40:05,VALID,999.635,VALID,0,VALID,92.7762,VALID,0,VALID,24.6965,VALID,170,VALID,1.42539,
2012-05-27, 02:41:05,VALID,999.603,VALID,0,VALID,92.5702,VALID,0,VALID,24.716,VALID,170,VALID,1.52539,
2012-05-27, 02:42:04,VALID,999.601,VALID,0,VALID,92.4405,VALID,0,VALID,24.7142,VALID,158,VALID,1.31758,
2012-05-27, 02:43:04,VALID,999.584,VALID,0,VALID,92.3413,VALID,0,VALID,24.7337,VALID,168,VALID,1.33867,
2012-05-27, 02:44:04,VALID,999.551,VALID,0,VALID,92.2268,VALID,0,VALID,24.716,VALID,168,VALID,1.24766,
2012-05-27, 02:45:04,VALID,999.514,VALID,0,VALID,92.204,VALID,0,VALID,24.716,VALID,160,VALID,1.1125,
2012-05-27, 02:46:04,VALID,999.488,VALID,0,VALID,92.1887,VALID,0,VALID,24.6965,VALID,152,VALID,0.826953,
2012-05-27, 02:47:04,VALID,999.461,VALID,0,VALID,92.2574,VALID,0,VALID,24.6556,VALID,136,VALID,0.717188,
2012-05-27, 02:48:04,VALID,999.454,VALID,0,VALID,92.265,VALID,0,VALID,24.6184,VALID,116,VALID,0.563281,
2012-05-27, 02:49:04,VALID,999.444,VALID,0,VALID,92.2574,VALID,0,VALID,24.5775,VALID,116,VALID,0.457422,
2012-05-27, 02:50:04,VALID,999.461,VALID,0,VALID,92.2879,VALID,0,VALID,24.5989,VALID,111,VALID,0.695703,
2012-05-27, 02:51:04,VALID,999.425,VALID,0,VALID,92.2955,VALID,0,VALID,24.5599,VALID,111,VALID,0.518359,
2012-05-27, 02:52:04,VALID,999.431,VALID,0,VALID,92.2879,VALID,0,VALID,24.5404,VALID,108,VALID,0.301172,
2012-05-27, 02:53:04,VALID,999.396,VALID,0,VALID,92.3794,VALID,0,VALID,24.5013,VALID,75,VALID,0.577344,
2012-05-27, 02:54:04,VALID,999.378,VALID,0,VALID,92.5473,VALID,0,VALID,24.4409,VALID,26,VALID,0.780859,
2012-05-27, 02:55:04,VALID,999.371,VALID,0,VALID,92.6999,VALID,0,VALID,24.4233,VALID,26,VALID,0.739062,
2012-05-27, 02:56:04,VALID,999.356,VALID,0,VALID,92.8448,VALID,0,VALID,24.3842,VALID,26,VALID,0.439844,
2012-05-27, 02:57:04,VALID,999.346,VALID,0,VALID,92.9288,VALID,0,VALID,24.3647,VALID,26,VALID,0.418359,
2012-05-27, 02:58:04,VALID,999.323,VALID,0,VALID,92.9364,VALID,0,VALID,24.3452,VALID,26,VALID,0.285937,
2012-05-27, 02:59:04,VALID,999.283,VALID,0,VALID,93.0127,VALID,0,VALID,24.3257,VALID,26,VALID,0.763281,
2012-05-27, 03:00:04,VALID,999.29,VALID,0,VALID,93.0356,VALID,0,VALID,24.3257,VALID,26,VALID,0.725391,
2012-05-27, 03:01:04,VALID,999.27,VALID,0,VALID,92.944,VALID,0,VALID,24.3062,VALID,26,VALID,0.811328,
2012-05-27, 03:02:04,VALID,999.237,VALID,0,VALID,92.944,VALID,0,VALID,24.2671,VALID,27,VALID,0.934375,
2012-05-27, 03:03:04,VALID,999.251,VALID,0,VALID,92.9593,VALID,0,VALID,24.2671,VALID,38,VALID,0.911328,
2012-05-27, 03:04:04,VALID,999.25,VALID,0,VALID,92.9745,VALID,0,VALID,24.2458,VALID,53,VALID,0.651953,
2012-05-27, 03:05:04,VALID,999.206,VALID,0,VALID,92.9898,VALID,0,VALID,24.2476,VALID,53,VALID,0.529688,
2012-05-27, 03:06:04,VALID,999.231,VALID,0,VALID,93.0127,VALID,0,VALID,24.2476,VALID,53,VALID,0.456641,
2012-05-27, 03:07:04,VALID,999.224,VALID,0,VALID,93.0432,VALID,0,VALID,24.2476,VALID,53,VALID,0.383594,
2012-05-27, 03:08:04,VALID,999.224,VALID,0,VALID,93.0737,VALID,0,VALID,24.1872,VALID,53,VALID,0.107031,
2012-05-27, 03:09:04,VALID,999.224,VALID,0,VALID,93.1271,VALID,0,VALID,24.1891,VALID,53,VALID,0.096875,
2012-05-27, 03:10:04,VALID,999.234,VALID,0,VALID,93.234,VALID,0,VALID,24.15,VALID,53,VALID,0.388281,
2012-05-27, 03:11:04,VALID,999.25,VALID,0,VALID,93.4552,VALID,0,VALID,24.15,VALID,53,VALID,0.519922,
2012-05-27, 03:12:04,VALID,999.245,VALID,0,VALID,93.5849,VALID,0,VALID,24.1696,VALID,53,VALID,0.275,
2012-05-27, 03:13:04,VALID,999.275,VALID,0,VALID,93.6688,VALID,0,VALID,24.15,VALID,53,VALID,0.345703,
2012-05-27, 03:14:04,VALID,999.236,VALID,0,VALID,93.7299,VALID,0,VALID,24.15,VALID,53,VALID,0.405859,
2012-05-27, 03:15:04,VALID,999.267,VALID,0,VALID,93.8214,VALID,0,VALID,24.1305,VALID,53,VALID,0.436328,
2012-05-27, 03:16:04,VALID,999.22,VALID,0,VALID,93.9359,VALID,0,VALID,24.111,VALID,53,VALID,0.504687,
2012-05-27, 03:17:04,VALID,999.217,VALID,0,VALID,94.0122,VALID,0,VALID,24.111,VALID,53,VALID,0.389844,
2012-05-27, 03:18:04,VALID,999.2,VALID,0,VALID,94.0351,VALID,0,VALID,24.111,VALID,53,VALID,0.544141,
2012-05-27, 03:19:04,VALID,999.189,VALID,0,VALID,93.974,VALID,0,VALID,24.111,VALID,52,VALID,0.527734,
2012-05-27, 03:20:04,VALID,999.183,VALID,0,VALID,93.9359,VALID,0,VALID,24.1696,VALID,52,VALID,0.623438,
2012-05-27, 03:21:04,VALID,999.135,VALID,0,VALID,93.7757,VALID,0,VALID,24.1677,VALID,52,VALID,0.56875,
2012-05-27, 03:22:04,VALID,999.095,VALID,0,VALID,93.4934,VALID,0,VALID,24.2086,VALID,52,VALID,0.535547,
2012-05-27, 03:23:04,VALID,999.096,VALID,0,VALID,93.1805,VALID,0,VALID,24.2263,VALID,52,VALID,0.515625,
2012-05-27, 03:24:04,VALID,999.108,VALID,0,VALID,92.9135,VALID,0,VALID,24.2866,VALID,141,VALID,0.566406,
2012-05-27, 03:25:04,VALID,999.124,VALID,0,VALID,92.1582,VALID,0,VALID,24.3062,VALID,169,VALID,0.685547,
2012-05-27, 03:26:04,VALID,999.145,VALID,0,VALID,91.0061,VALID,0,VALID,24.3452,VALID,169,VALID,0.567969,
2012-05-27, 03:27:04,VALID,999.171,VALID,0,VALID,90.1516,VALID,0,VALID,24.3842,VALID,169,VALID,0.237891,
2012-05-27, 03:28:04,VALID,999.189,VALID,0,VALID,89.7701,VALID,0,VALID,24.4019,VALID,162,VALID,0.601953,
2012-05-27, 03:29:04,VALID,999.159,VALID,0,VALID,89.32,VALID,0,VALID,24.4604,VALID,156,VALID,0.778125,
2012-05-27, 03:30:04,VALID,999.187,VALID,0,VALID,88.7783,VALID,0,VALID,24.5404,VALID,154,VALID,0.620313,
2012-05-27, 03:31:04,VALID,999.163,VALID,0,VALID,88.5723,VALID,0,VALID,24.5404,VALID,154,VALID,0.831641,
2012-05-27, 03:32:04,VALID,999.158,VALID,0,VALID,88.4502,VALID,0,VALID,24.5599,VALID,154,VALID,0.628906,
2012-05-27, 03:33:04,VALID,999.184,VALID,0,VALID,88.2671,VALID,0,VALID,24.5599,VALID,154,VALID,0.597266,
2012-05-27, 03:34:04,VALID,999.183,VALID,0,VALID,88.1603,VALID,0,VALID,24.5404,VALID,154,VALID,0.361719,
2012-05-27, 03:35:04,VALID,999.196,VALID,0,VALID,88.2213,VALID,0,VALID,24.5013,VALID,154,VALID,0.0945313,
2012-05-27, 03:36:04,VALID,999.203,VALID,0,VALID,88.5112,VALID,0,VALID,24.4623,VALID,154,VALID,0.384766,
2012-05-27, 03:37:04,VALID,999.178,VALID,0,VALID,88.5417,VALID,0,VALID,24.4233,VALID,61,VALID,0.709766,
2012-05-27, 03:38:04,VALID,999.159,VALID,0,VALID,89.0224,VALID,0,VALID,24.3842,VALID,32,VALID,1.05352,
2012-05-27, 03:39:04,VALID,999.185,VALID,0,VALID,89.3428,VALID,0,VALID,24.3062,VALID,30,VALID,1.26602,
2012-05-27, 03:40:04,VALID,999.181,VALID,0,VALID,89.9074,VALID,0,VALID,24.2671,VALID,42,VALID,0.962891,
2012-05-27, 03:41:04,VALID,999.209,VALID,0,VALID,89.9914,VALID,0,VALID,24.2281,VALID,42,VALID,0.720703,
2012-05-27, 03:42:04,VALID,999.212,VALID,0,VALID,89.9837,VALID,0,VALID,24.2086,VALID,42,VALID,0.603516,
2012-05-27, 03:43:04,VALID,999.204,VALID,0,VALID,89.8998,VALID,0,VALID,24.2086,VALID,42,VALID,0.633203,
2012-05-27, 03:44:04,VALID,999.211,VALID,0,VALID,89.6099,VALID,0,VALID,24.2671,VALID,100,VALID,0.746094,
2012-05-27, 03:45:04,VALID,999.219,VALID,0,VALID,89.5565,VALID,0,VALID,24.2476,VALID,100,VALID,0.833203,
2012-05-27, 03:46:04,VALID,999.217,VALID,0,VALID,89.2971,VALID,0,VALID,24.3257,VALID,100,VALID,0.894922,